Location: Chacón
(10.5789°N, 66.9317°W)
Time: 12:07:38
(UTC+00:00)

Cosmos 2333 Rocket - Pass Details

Date: 23 May 2024
Orbit: 838 x 863 km, 70.8° (Epoch: 20 June)

Event Time Altitude Azimuth Distance (km) Brightness Sun altitude
Rises 07:46:50 0° 350° (N) 3,418 5.6 -31.3°
Reaches altitude 10° 07:49:19 10° 354° (N) 2,486 4.9 -30.8°
Maximum altitude 07:54:57 59° 74° (ENE) 984 2.7 -29.6°
Drops below altitude 10° 08:00:35 10° 152° (SSE) 2,495 4.6 -28.4°
Sets 08:03:05 0° 156° (SSE) 3,432 5.3 -27.9°
